Flag for U.S.A. Weather past 2 weeks in Livonia, Michigan, U.S.A.

Now
50 °F

Passing clouds.


Feels Like: 48 °F
Forecast: 46 / 68 °F
Wind: 5 mph from Northeast

Location: Detroit Metropolitan Wayne County Airport

Current Time: Sep 19, 2014 at 12:50:13 AM

Latest Report: Sep 18, 2014 at 11:53 PM


Visibility: 10 mi

Pressure: 30.23 "Hg

Humidity: 80%

Dew point: 44 °F

Location of LivoniaLocation

Historic Weather in Livonia — Graph

°F

Livonia temperature yesterday

Maximum temperature yesterday: 69 °F (at 1:53 PM)
Minimum temperature yesterday: 50 °F (at 5:53 AM)
Average temperature yesterday: 58 °F

Past Weeks' High & Low Weather Summary

 TemperatureHumidityPressure
High92 °F (Sep 5, 4:53 PM)97% (Sep 16, 6:53 AM)30.37 "Hg (Sep 16, 6:53 AM)
Low43 °F (Sep 14, 4:53 AM)40% (Sep 7, 3:53 PM)29.60 "Hg (Sep 10, 7:53 PM)
Average63 °F73%30.09 "Hg
* Reported Sep 3 11:53 PM — Sep 18 11:53 PM, Livonia, Weather by CustomWeather, © 2014

Note: Actual official high and low records may vary slightly from our data, if they occured in-between our weather recording intervals... More about our weather records

Advertising

Livonia weather history for previous 24 hours

 ConditionsComfort  
Time TempWeatherWind HumidityBarometerVisibility
11:53 PM
Sep 18
50 °FPassing clouds.5 mph80%30.23 "Hg10 mi
10:53 PM52 °FPassing clouds.8 mph80%30.22 "Hg10 mi
9:53 PM55 °FPassing clouds.5 mph77%30.20 "Hg10 mi
8:53 PM57 °FPassing clouds.5 mph74%30.18 "Hg10 mi
7:53 PM59 °FPartly sunny.7 mph72%30.16 "Hg10 mi
6:53 PM61 °FBroken clouds.9 mph70%30.15 "Hg10 mi
5:53 PM64 °FBroken clouds.9 mph68%30.14 "Hg10 mi
4:53 PM68 °FBroken clouds.8 mph55%30.13 "Hg10 mi
3:53 PM68 °FBroken clouds.9 mph55%30.13 "Hg10 mi
2:53 PM68 °FPartly sunny.9 mph53%30.14 "Hg10 mi
1:53 PM69 °FMostly cloudy.5 mph53%30.15 "Hg10 mi
12:53 PM65 °FPartly sunny.5 mph59%30.16 "Hg10 mi
11:53 AM66 °FScattered clouds.7 mph59%30.14 "Hg10 mi
10:53 AM63 °FPassing clouds.6 mph70%30.13 "Hg10 mi
9:53 AM59 °FPassing clouds.6 mph78%30.12 "Hg10 mi
8:53 AM54 °FPassing clouds.6 mph86%30.11 "Hg10 mi
7:53 AM50 °FPassing clouds.5 mph89%30.11 "Hg10 mi
6:53 AM50 °FPassing clouds.3 mph83%30.08 "Hg10 mi
5:53 AM50 °FPassing clouds.3 mph83%30.06 "Hg10 mi
4:53 AM51 °FPassing clouds.No wind80%30.04 "Hg10 mi
3:53 AM52 °FPassing clouds.No wind77%30.03 "Hg10 mi
2:53 AM52 °FPassing clouds.No wind80%30.03 "Hg10 mi
1:53 AM52 °FPassing clouds.3 mph80%30.03 "Hg10 mi
12:53 AM53 °FPassing clouds.3 mph77%30.03 "Hg10 mi
Weather by CustomWeather, © 2014

See weather overviewHow to use our weather pages